Preview of NWS' New Version of Forecast
This preview is not operational and should not be used for support decisions.

Regional Weather Roundup (RWR)

Issued by National Weather Service (NWS)

                            
000
ASUS44 KMEG 211600
RWRTN 
TENNESSEE HOURLY STATE WEATHER ROUNDUP
NATIONAL WEATHER SERVICE MEMPHIS TN
1100 AM CDT SUN JUL 21 2019

TNZ002-004-019-021-049-052-054-088>092-211700-
WEST TENNESSEE
  
CITY           SKY/WX    TMP DP  RH WIND       PRES   REMARKS
MEMPHIS INTL   FAIR      88  78  72 VRB6      30.01R HX 101           
NWS MEMPHIS      N/A     88 N/A N/A MISG        N/A                   
JACKSON        FAIR      79  76  90 SW9       30.03S                  
DYERSBURG      PTSUNNY   83  78  85 SE6       30.02R HX  93           
HUNTINGDON     MOSUNNY   81  75  83 S8        30.02S                  
SELMER         MOSUNNY   77  75  94 VRB7      30.03F                  
$$

TNZ008-025-027-028-033-062-065-066-211700-
NORTH MIDDLE TENNESSEE
  
CITY           SKY/WX    TMP DP  RH WIND       PRES   REMARKS
NASHVILLE      LGT RAIN  78  72  81 CALM      30.05R                  
CLARKSVILLE    CLOUDY    82  76  81 SW6       30.02R                  
SMYRNA         CLOUDY    77  74  90 SW5       30.06S                  
LIVINGSTON     PTSUNNY   79  73  83 SW6G13    30.06F                  
CROSSVILLE     CLOUDY    76  70  82 W7        30.12S                  
$$

TNZ061-075-076-078-094-096-097-211700-
SOUTH MIDDLE TENNESSEE
  
CITY           SKY/WX    TMP DP  RH WIND       PRES   REMARKS
$$

TNZ017-018-042-046-047-211700-
NORTHEAST TENNESSEE
  
CITY           SKY/WX    TMP DP  RH WIND       PRES   REMARKS
TRI CITIES     PTSUNNY   81  72  74 CALM      30.10S                  
$$

TNZ012-013-036-069-073-074-211700-
CENTRAL EAST TENNESSEE
  
CITY           SKY/WX    TMP DP  RH WIND       PRES   REMARKS
KNOXVILLE      CLOUDY    82  70  66 SW10      30.07R                  
OAK RIDGE      FAIR      83  72  69 VRB7      30.08S                  
$$

TNZ083-085-099-211700-
SOUTHEAST TENNESSEE
  
CITY           SKY/WX    TMP DP  RH WIND       PRES   REMARKS
CHATTANOOGA    PTSUNNY   83  72  69 SW5       30.08S                  
$$

SKY/WX REPORTED AS FAIR MEANS FEW OR NO CLOUDS BELOW
12 THOUSAND FEET.